User: anonymous   Login
Location: Hamburg
(53.5500°N, 10.0000°E)
Time: 18:07:22
(UTC+02:00)
Language:

Iridium 10 - Orbit

View from above orbital plane
View from above orbital plane
View from above satellite
View from above satellite

Ground track
Ground track

The orbit data is extracted from the following two-line orbital elements,

1 24839U 97030D   15088.18369088  .00000477  00000-0  16333-3 0  9997
2 24839 086.3977 329.0952 0002033 085.0338 026.8532 14.34217516930713
Epoch (UTC): 29 March 2015 04:24:30
Eccentricity: 0.0002033
inclination: 86.3977°
perigee height: 776 km
apogee height: 779 km
right ascension of ascending node: 329.0952°
argument of perigee: 85.0338°
revolutions per day: 14.34217516
mean anomaly at epoch: 26.8532°
orbit number at epoch: 93071

The dashed part of the orbit path shows where the satellite is in the earth's shadow,  

DLR